Time,TemperatureF,DewpointF,PressureIn,WindDirection,WindDirectionDegrees,WindSpeedMPH,WindSpeedGustMPH,Humidity,HourlyPrecipIn,Conditions,Clouds,dailyrainin,SoftwareType,DateUTC
2013-04-26 00:01:00,40.5,41.7,30.28,NW,306,0.0,0.0,67,0.00,,,0.00,meteohub,2013-04-26 04:01:00,
2013-04-26 00:06:00,40.3,41.7,30.28,NW,306,0.0,0.0,68,0.00,,,0.00,meteohub,2013-04-26 04:06:00,
2013-04-26 00:11:00,40.3,41.7,30.29,NW,306,0.0,0.0,69,0.00,,,0.00,meteohub,2013-04-26 04:11:00,
2013-04-26 00:16:00,39.9,41.5,30.29,NW,306,0.0,0.0,70,0.00,,,0.00,meteohub,2013-04-26 04:16:00,
2013-04-26 00:21:00,39.7,41.5,30.29,NW,306,0.0,0.0,69,0.00,,,0.00,meteohub,2013-04-26 04:21:00,
2013-04-26 00:26:00,39.7,41.5,30.29,NW,306,0.0,0.0,70,0.00,,,0.00,meteohub,2013-04-26 04:26:00,
2013-04-26 00:31:00,39.6,41.4,30.29,NW,306,0.0,0.0,70,0.00,,,0.00,meteohub,2013-04-26 04:31:00,
2013-04-26 00:36:00,39.4,41.4,30.30,NW,306,0.0,0.0,71,0.00,,,0.00,meteohub,2013-04-26 04:36:00,
2013-04-26 00:41:00,39.4,41.4,30.30,NW,306,0.0,0.0,71,0.00,,,0.00,meteohub,2013-04-26 04:41:00,
2013-04-26 00:46:00,39.2,41.2,30.29,NW,306,0.0,0.0,72,0.00,,,0.00,meteohub,2013-04-26 04:46:00,
2013-04-26 00:51:00,39.0,41.2,30.30,NW,306,0.0,0.0,71,0.00,,,0.00,meteohub,2013-04-26 04:51:00,
2013-04-26 00:56:00,38.8,41.2,30.30,NW,306,0.0,0.0,72,0.00,,,0.00,meteohub,2013-04-26 04:56:00,
2013-04-26 01:01:00,38.7,41.0,30.30,NW,306,0.0,0.0,72,0.00,,,0.00,meteohub,2013-04-26 05:01:00,
2013-04-26 01:06:00,38.5,41.0,30.30,NW,306,0.0,0.0,73,0.00,,,0.00,meteohub,2013-04-26 05:06:00,
2013-04-26 01:12:00,38.3,41.0,30.30,NW,306,0.0,0.0,74,0.00,,,0.00,meteohub,2013-04-26 05:12:00,
2013-04-26 01:17:00,38.1,41.0,30.30,NW,306,0.0,0.0,74,0.00,,,0.00,meteohub,2013-04-26 05:17:00,
2013-04-26 01:22:00,37.9,40.8,30.30,NW,306,0.0,0.0,74,0.00,,,0.00,meteohub,2013-04-26 05:22:00,
2013-04-26 01:27:00,37.8,40.8,30.30,NW,306,0.0,0.0,74,0.00,,,0.00,meteohub,2013-04-26 05:27:00,
2013-04-26 01:32:00,37.4,40.8,30.30,NW,306,0.0,0.0,73,0.00,,,0.00,meteohub,2013-04-26 05:32:00,
2013-04-26 01:37:00,37.2,40.6,30.30,NW,306,0.0,0.0,74,0.00,,,0.00,meteohub,2013-04-26 05:37:00,
2013-04-26 01:42:00,37.2,40.6,30.30,NW,306,0.0,0.0,75,0.00,,,0.00,meteohub,2013-04-26 05:42:00,
2013-04-26 01:47:00,37.0,40.6,30.30,NW,306,0.0,0.0,75,0.00,,,0.00,meteohub,2013-04-26 05:47:00,
2013-04-26 01:52:00,36.9,40.5,30.30,NW,306,0.0,0.0,76,0.00,,,0.00,meteohub,2013-04-26 05:52:00,
2013-04-26 01:57:00,36.7,40.5,30.30,NW,306,0.0,0.0,76,0.00,,,0.00,meteohub,2013-04-26 05:57:00,
2013-04-26 02:02:00,36.3,40.5,30.29,NW,306,0.0,0.0,76,0.00,,,0.00,meteohub,2013-04-26 06:02:00,
2013-04-26 02:07:00,36.3,40.5,30.29,NW,306,0.0,0.0,76,0.00,,,0.00,meteohub,2013-04-26 06:07:00,
2013-04-26 02:12:00,36.1,40.5,30.29,NW,306,0.0,0.0,77,0.00,,,0.00,meteohub,2013-04-26 06:12:00,
2013-04-26 02:17:00,36.1,40.6,30.30,NW,306,0.0,0.0,78,0.00,,,0.00,meteohub,2013-04-26 06:17:00,
2013-04-26 02:22:00,36.0,40.6,30.30,NW,306,0.0,0.0,78,0.00,,,0.00,meteohub,2013-04-26 06:22:00,
2013-04-26 02:27:00,35.8,40.6,30.30,NW,306,0.0,0.0,78,0.00,,,0.00,meteohub,2013-04-26 06:27:00,
2013-04-26 02:32:00,35.4,40.6,30.30,NW,306,0.0,0.0,78,0.00,,,0.00,meteohub,2013-04-26 06:32:00,
2013-04-26 02:37:00,35.2,40.5,30.30,NW,306,0.0,0.0,78,0.00,,,0.00,meteohub,2013-04-26 06:37:00,
2013-04-26 02:42:00,35.2,40.5,30.30,NW,306,0.0,0.0,79,0.00,,,0.00,meteohub,2013-04-26 06:42:00,
2013-04-26 02:47:00,35.2,40.5,30.30,NW,306,0.0,0.0,79,0.00,,,0.00,meteohub,2013-04-26 06:47:00,
2013-04-26 02:52:00,35.1,40.5,30.30,NW,306,0.0,0.0,79,0.00,,,0.00,meteohub,2013-04-26 06:52:00,
2013-04-26 02:57:00,35.1,40.5,30.30,NW,306,0.0,0.0,79,0.00,,,0.00,meteohub,2013-04-26 06:57:00,
2013-04-26 03:02:00,34.9,40.5,30.30,NW,306,0.0,0.0,80,0.00,,,0.00,meteohub,2013-04-26 07:02:00,
2013-04-26 03:07:00,34.9,40.5,30.30,NW,306,0.0,0.0,80,0.00,,,0.00,meteohub,2013-04-26 07:07:00,
2013-04-26 03:12:00,34.7,40.5,30.30,NW,306,0.0,0.0,80,0.00,,,0.00,meteohub,2013-04-26 07:12:00,
2013-04-26 03:17:00,34.5,40.5,30.31,NW,306,0.0,0.0,80,0.00,,,0.00,meteohub,2013-04-26 07:17:00,
2013-04-26 03:22:00,34.3,40.5,30.31,NW,306,0.0,0.0,80,0.00,,,0.00,meteohub,2013-04-26 07:22:00,
2013-04-26 03:27:00,34.3,40.5,30.31,NW,306,0.0,0.0,81,0.00,,,0.00,meteohub,2013-04-26 07:27:00,
2013-04-26 03:32:00,34.2,40.5,30.31,NW,306,0.0,0.0,81,0.00,,,0.00,meteohub,2013-04-26 07:32:00,
2013-04-26 03:37:00,34.0,40.5,30.31,NW,306,0.0,0.0,81,0.00,,,0.00,meteohub,2013-04-26 07:37:00,
2013-04-26 03:42:00,33.8,40.5,30.31,NW,306,0.0,0.0,82,0.00,,,0.00,meteohub,2013-04-26 07:42:00,
2013-04-26 03:47:00,33.6,41.4,30.31,NW,306,0.0,0.0,82,0.00,,,0.00,meteohub,2013-04-26 07:47:00,
2013-04-26 03:52:00,33.6,41.5,30.32,NW,306,0.0,0.0,83,0.00,,,0.00,meteohub,2013-04-26 07:52:00,
2013-04-26 03:57:00,33.6,41.5,30.32,NW,306,0.0,0.0,83,0.00,,,0.00,meteohub,2013-04-26 07:57:00,
2013-04-26 04:02:00,33.4,41.4,30.32,NW,306,0.0,0.0,83,0.00,,,0.00,meteohub,2013-04-26 08:02:00,
2013-04-26 04:07:00,33.4,41.4,30.32,NW,306,0.0,0.0,83,0.00,,,0.00,meteohub,2013-04-26 08:07:00,
2013-04-26 04:12:00,33.4,40.5,30.32,NW,306,0.0,0.0,83,0.00,,,0.00,meteohub,2013-04-26 08:12:00,
2013-04-26 04:17:00,33.3,40.5,30.32,NW,306,0.0,0.0,83,0.00,,,0.00,meteohub,2013-04-26 08:17:00,
2013-04-26 04:22:00,33.3,40.5,30.33,NW,306,0.0,0.0,84,0.00,,,0.00,meteohub,2013-04-26 08:22:00,
2013-04-26 04:27:00,33.1,40.5,30.33,NW,306,0.0,0.0,84,0.00,,,0.00,meteohub,2013-04-26 08:27:00,
2013-04-26 04:32:00,33.1,40.3,30.33,NW,306,0.0,0.0,84,0.00,,,0.00,meteohub,2013-04-26 08:32:00,
2013-04-26 04:37:00,32.9,40.3,30.33,NW,306,0.0,0.0,85,0.00,,,0.00,meteohub,2013-04-26 08:37:00,
2013-04-26 04:42:00,32.7,40.3,30.33,NW,306,0.0,0.0,85,0.00,,,0.00,meteohub,2013-04-26 08:42:00,
2013-04-26 04:47:00,32.5,41.2,30.34,NW,306,0.0,0.0,85,0.00,,,0.00,meteohub,2013-04-26 08:47:00,
2013-04-26 04:52:00,32.7,41.2,30.34,NW,306,0.0,0.0,85,0.00,,,0.00,meteohub,2013-04-26 08:52:00,
2013-04-26 04:57:00,32.7,41.2,30.35,NW,306,0.0,0.0,86,0.00,,,0.00,meteohub,2013-04-26 08:57:00,
2013-04-26 05:02:00,32.5,41.2,30.35,NW,306,0.0,0.0,86,0.00,,,0.00,meteohub,2013-04-26 09:02:00,
2013-04-26 05:07:00,32.5,41.2,30.35,NW,306,0.0,0.0,86,0.00,,,0.00,meteohub,2013-04-26 09:07:00,
2013-04-26 05:12:00,32.4,40.3,30.35,NW,306,0.0,0.0,86,0.00,,,0.00,meteohub,2013-04-26 09:12:00,
2013-04-26 05:17:00,32.4,40.3,30.35,NW,306,0.0,0.0,86,0.00,,,0.00,meteohub,2013-04-26 09:17:00,
2013-04-26 05:22:00,32.4,40.3,30.35,NW,306,0.0,0.0,87,0.00,,,0.00,meteohub,2013-04-26 09:22:00,
2013-04-26 05:27:00,32.4,41.0,30.35,NW,306,0.0,0.0,87,0.00,,,0.00,meteohub,2013-04-26 09:27:00,
2013-04-26 05:32:00,32.4,41.0,30.35,NW,306,0.0,0.0,88,0.00,,,0.00,meteohub,2013-04-26 09:32:00,
2013-04-26 05:37:00,32.5,41.0,30.36,NW,306,0.0,0.0,88,0.00,,,0.00,meteohub,2013-04-26 09:37:00,
2013-04-26 05:42:00,32.5,41.0,30.36,NW,306,0.0,0.0,88,0.00,,,0.00,meteohub,2013-04-26 09:42:00,
2013-04-26 05:47:00,32.4,41.0,30.36,NW,306,0.0,0.0,88,0.00,,,0.00,meteohub,2013-04-26 09:47:00,
2013-04-26 05:52:00,32.2,41.0,30.36,NW,306,0.0,0.0,88,0.00,,,0.00,meteohub,2013-04-26 09:52:00,
2013-04-26 05:57:00,32.2,41.0,30.36,NW,306,0.0,0.0,88,0.00,,,0.00,meteohub,2013-04-26 09:57:00,
2013-04-26 06:02:00,32.0,41.2,30.37,NW,306,0.0,0.0,88,0.00,,,0.00,meteohub,2013-04-26 10:02:00,
2013-04-26 06:07:00,32.0,41.2,30.37,NW,306,0.0,0.0,88,0.00,,,0.00,meteohub,2013-04-26 10:07:00,
2013-04-26 06:12:00,31.8,41.4,30.37,NW,306,0.0,0.0,88,0.00,,,0.00,meteohub,2013-04-26 10:12:00,
2013-04-26 06:17:00,31.8,41.4,30.37,NW,306,0.0,0.0,88,0.00,,,0.00,meteohub,2013-04-26 10:17:00,
2013-04-26 06:22:00,31.8,41.4,30.38,NW,306,0.0,0.0,88,0.00,,,0.00,meteohub,2013-04-26 10:22:00,
2013-04-26 06:27:00,32.0,41.2,30.38,NW,306,0.0,0.0,89,0.00,,,0.00,meteohub,2013-04-26 10:27:00,
2013-04-26 06:32:00,32.2,41.2,30.38,NW,306,0.0,0.0,89,0.00,,,0.00,meteohub,2013-04-26 10:32:00,
2013-04-26 06:37:00,32.2,41.2,30.38,NW,306,0.0,0.0,89,0.00,,,0.00,meteohub,2013-04-26 10:37:00,
2013-04-26 06:42:00,32.4,41.0,30.38,NW,306,0.0,0.0,89,0.00,,,0.00,meteohub,2013-04-26 10:42:00,
2013-04-26 06:47:00,32.9,41.0,30.38,NW,306,0.0,0.0,89,0.00,,,0.00,meteohub,2013-04-26 10:47:00,
2013-04-26 06:52:00,33.4,41.0,30.38,NW,306,0.0,0.0,89,0.00,,,0.00,meteohub,2013-04-26 10:52:00,
2013-04-26 06:57:00,34.0,41.0,30.38,NW,306,0.0,0.0,89,0.00,,,0.00,meteohub,2013-04-26 10:57:00,
2013-04-26 07:02:00,34.3,41.0,30.39,NW,306,0.0,0.0,88,0.00,,,0.00,meteohub,2013-04-26 11:02:00,
2013-04-26 07:07:00,35.1,41.0,30.39,NW,306,0.0,0.0,88,0.00,,,0.00,meteohub,2013-04-26 11:07:00,
2013-04-26 07:12:00,35.8,41.0,30.39,NW,306,0.0,0.0,88,0.00,,,0.00,meteohub,2013-04-26 11:12:00,
2013-04-26 07:17:00,36.7,41.0,30.39,NW,306,0.0,0.0,87,0.00,,,0.00,meteohub,2013-04-26 11:17:00,
2013-04-26 07:22:00,37.4,41.0,30.39,NW,306,0.0,0.0,87,0.00,,,0.00,meteohub,2013-04-26 11:22:00,
2013-04-26 07:27:00,38.3,41.0,30.39,NW,306,0.0,0.0,86,0.00,,,0.00,meteohub,2013-04-26 11:27:00,
2013-04-26 07:32:00,39.4,41.0,30.39,NW,306,0.0,0.0,83,0.00,,,0.00,meteohub,2013-04-26 11:32:00,
2013-04-26 07:37:00,40.3,40.8,30.39,NW,306,0.0,0.0,81,0.00,,,0.00,meteohub,2013-04-26 11:37:00,
2013-04-26 07:42:00,41.2,41.0,30.39,NW,306,0.0,0.0,79,0.00,,,0.00,meteohub,2013-04-26 11:42:00,
2013-04-26 07:47:00,41.9,41.0,30.38,NW,306,0.0,1.0,75,0.00,,,0.00,meteohub,2013-04-26 11:47:00,
2013-04-26 07:52:00,42.4,41.0,30.39,NW,306,0.0,1.0,74,0.00,,,0.00,meteohub,2013-04-26 11:52:00,
2013-04-26 07:57:00,43.2,41.0,30.39,NW,306,0.0,2.0,74,0.00,,,0.00,meteohub,2013-04-26 11:57:00,
2013-04-26 08:02:00,43.7,41.0,30.39,NW,306,0.0,2.0,73,0.00,,,0.00,meteohub,2013-04-26 12:02:00,
2013-04-26 08:07:00,44.2,41.0,30.39,NW,306,0.0,2.0,72,0.00,,,0.00,meteohub,2013-04-26 12:07:00,
2013-04-26 08:12:00,44.8,41.0,30.39,NW,306,0.0,2.0,71,0.00,,,0.00,meteohub,2013-04-26 12:12:00,
2013-04-26 08:17:00,45.1,41.2,30.39,NW,306,0.0,2.0,70,0.00,,,0.00,meteohub,2013-04-26 12:17:00,
2013-04-26 08:22:00,46.0,41.2,30.39,NW,306,0.0,2.0,69,0.00,,,0.00,meteohub,2013-04-26 12:22:00,
2013-04-26 08:27:00,46.8,41.2,30.39,NW,306,0.0,2.0,68,0.00,,,0.00,meteohub,2013-04-26 12:27:00,
2013-04-26 08:32:00,47.5,41.2,30.40,NW,306,0.0,2.0,66,0.00,,,0.00,meteohub,2013-04-26 12:32:00,
2013-04-26 08:37:00,48.0,41.2,30.39,NW,306,0.0,2.0,66,0.00,,,0.00,meteohub,2013-04-26 12:37:00,
2013-04-26 08:42:00,48.9,41.2,30.40,SSE,148,1.0,1.0,64,0.00,,,0.00,meteohub,2013-04-26 12:42:00,
2013-04-26 08:47:00,49.8,41.0,30.39,SSE,148,0.0,4.0,63,0.00,,,0.00,meteohub,2013-04-26 12:47:00,
2013-04-26 08:52:00,50.7,41.0,30.40,ENE,66,0.0,4.0,59,0.00,,,0.00,meteohub,2013-04-26 12:52:00,
2013-04-26 08:57:00,51.6,41.0,30.40,SSE,150,4.0,4.0,57,0.00,,,0.00,meteohub,2013-04-26 12:57:00,
2013-04-26 09:02:00,52.2,41.0,30.39,ESE,102,1.0,6.0,55,0.00,,,0.00,meteohub,2013-04-26 13:02:00,
2013-04-26 09:07:00,52.5,41.2,30.40,SSE,162,1.0,6.0,53,0.00,,,0.00,meteohub,2013-04-26 13:07:00,
2013-04-26 09:12:00,52.9,41.2,30.40,South,176,4.0,7.0,54,0.00,,,0.00,meteohub,2013-04-26 13:12:00,
2013-04-26 09:17:00,53.2,41.2,30.40,SSE,162,4.0,7.0,52,0.00,,,0.00,meteohub,2013-04-26 13:17:00,
2013-04-26 09:22:00,53.2,41.2,30.40,NNE,33,0.0,7.0,53,0.00,,,0.00,meteohub,2013-04-26 13:22:00,
2013-04-26 09:27:00,53.6,41.2,30.40,SSE,148,2.0,7.0,52,0.00,,,0.00,meteohub,2013-04-26 13:27:00,
2013-04-26 09:32:00,54.0,41.2,30.40,SSE,153,5.0,6.0,51,0.00,,,0.00,meteohub,2013-04-26 13:32:00,
2013-04-26 09:37:00,54.1,41.2,30.40,SE,140,1.0,7.0,52,0.00,,,0.00,meteohub,2013-04-26 13:37:00,
2013-04-26 09:42:00,54.7,41.4,30.40,South,172,2.0,7.0,51,0.00,,,0.00,meteohub,2013-04-26 13:42:00,
2013-04-26 09:47:00,55.0,41.4,30.40,SE,135,0.0,7.0,50,0.00,,,0.00,meteohub,2013-04-26 13:47:00,
2013-04-26 09:52:00,55.6,41.4,30.40,South,178,0.0,6.0,50,0.00,,,0.00,meteohub,2013-04-26 13:52:00,
2013-04-26 09:57:00,55.9,41.4,30.40,SSE,163,0.0,6.0,48,0.00,,,0.00,meteohub,2013-04-26 13:57:00,
2013-04-26 10:02:00,56.1,41.4,30.40,SSE,147,4.0,7.0,47,0.00,,,0.00,meteohub,2013-04-26 14:02:00,
2013-04-26 10:07:00,56.5,41.5,30.40,SE,136,4.0,7.0,45,0.00,,,0.00,meteohub,2013-04-26 14:07:00,
2013-04-26 10:12:00,56.8,41.5,30.40,SE,146,5.0,7.0,45,0.00,,,0.00,meteohub,2013-04-26 14:12:00,
2013-04-26 10:17:00,57.4,41.5,30.40,NNW,340,0.0,7.0,46,0.00,,,0.00,meteohub,2013-04-26 14:17:00,
2013-04-26 10:22:00,57.4,41.5,30.40,South,172,3.0,6.0,45,0.00,,,0.00,meteohub,2013-04-26 14:22:00,
2013-04-26 10:27:00,57.0,41.5,30.40,SE,140,2.0,6.0,44,0.00,,,0.00,meteohub,2013-04-26 14:27:00,
2013-04-26 10:32:00,56.8,41.7,30.40,East,98,0.0,7.0,44,0.00,,,0.00,meteohub,2013-04-26 14:32:00,
2013-04-26 10:37:00,56.8,41.7,30.40,SSE,152,4.0,7.0,46,0.00,,,0.00,meteohub,2013-04-26 14:37:00,
2013-04-26 10:42:00,57.6,41.7,30.40,SSE,163,4.0,7.0,44,0.00,,,0.00,meteohub,2013-04-26 14:42:00,
2013-04-26 10:47:00,57.4,41.7,30.40,ESE,109,0.0,9.0,44,0.00,,,0.00,meteohub,2013-04-26 14:47:00,
2013-04-26 10:52:00,57.4,41.7,30.40,SE,132,3.0,9.0,46,0.00,,,0.00,meteohub,2013-04-26 14:52:00,
2013-04-26 10:57:00,57.4,41.9,30.40,SE,141,0.0,9.0,44,0.00,,,0.00,meteohub,2013-04-26 14:57:00,
2013-04-26 11:02:00,57.7,41.9,30.40,South,175,1.0,7.0,47,0.00,,,0.00,meteohub,2013-04-26 15:02:00,
2013-04-26 11:07:00,58.5,41.9,30.40,SE,137,1.0,8.0,44,0.00,,,0.00,meteohub,2013-04-26 15:07:00,
2013-04-26 11:12:00,58.8,41.9,30.40,SSE,159,4.0,8.0,44,0.00,,,0.00,meteohub,2013-04-26 15:12:00,
2013-04-26 11:17:00,58.5,41.9,30.40,SSE,156,2.0,8.0,45,0.00,,,0.00,meteohub,2013-04-26 15:17:00,
2013-04-26 11:22:00,58.8,41.9,30.40,SSE,158,4.0,7.0,45,0.00,,,0.00,meteohub,2013-04-26 15:22:00,
2013-04-26 11:27:00,59.0,42.1,30.40,West,265,1.0,7.0,45,0.00,,,0.00,meteohub,2013-04-26 15:27:00,
2013-04-26 11:32:00,59.0,42.1,30.40,SSE,150,1.0,7.0,46,0.00,,,0.00,meteohub,2013-04-26 15:32:00,
2013-04-26 11:37:00,59.0,42.1,30.40,South,179,0.0,7.0,44,0.00,,,0.00,meteohub,2013-04-26 15:37:00,
2013-04-26 11:42:00,59.0,42.1,30.40,SSE,148,5.0,6.0,45,0.00,,,0.00,meteohub,2013-04-26 15:42:00,
2013-04-26 11:47:00,59.0,42.1,30.40,SSE,153,0.0,7.0,43,0.00,,,0.00,meteohub,2013-04-26 15:47:00,
2013-04-26 11:52:00,59.0,42.1,30.40,SE,133,0.0,7.0,44,0.00,,,0.00,meteohub,2013-04-26 15:52:00,
2013-04-26 11:57:00,59.2,42.1,30.39,SSE,154,7.0,8.0,45,0.00,,,0.00,meteohub,2013-04-26 15:57:00,
2013-04-26 12:02:00,58.8,42.1,30.39,SE,134,3.0,8.0,43,0.00,,,0.00,meteohub,2013-04-26 16:02:00,
2013-04-26 12:07:00,59.0,42.3,30.39,SE,138,7.0,9.0,45,0.00,,,0.00,meteohub,2013-04-26 16:07:00,
2013-04-26 12:12:00,59.0,42.3,30.39,SSE,161,6.0,9.0,46,0.00,,,0.00,meteohub,2013-04-26 16:12:00,
2013-04-26 12:17:00,59.0,42.3,30.38,SE,145,1.0,9.0,47,0.00,,,0.00,meteohub,2013-04-26 16:17:00,
2013-04-26 12:22:00,59.5,42.3,30.38,SSE,164,1.0,9.0,49,0.00,,,0.00,meteohub,2013-04-26 16:22:00,
2013-04-26 12:27:00,59.0,42.3,30.38,SSE,150,0.0,8.0,44,0.00,,,0.00,meteohub,2013-04-26 16:27:00,
2013-04-26 12:32:00,59.5,42.3,30.38,WNW,284,1.0,8.0,45,0.00,,,0.00,meteohub,2013-04-26 16:32:00,
2013-04-26 12:37:00,59.9,42.3,30.38,South,190,0.0,8.0,45,0.00,,,0.00,meteohub,2013-04-26 16:37:00,
2013-04-26 12:42:00,60.4,42.3,30.37,SE,144,2.0,6.0,45,0.00,,,0.00,meteohub,2013-04-26 16:42:00,
2013-04-26 12:47:00,61.3,42.3,30.37,SSE,160,4.0,5.0,44,0.00,,,0.00,meteohub,2013-04-26 16:47:00,
2013-04-26 12:52:00,61.2,42.3,30.37,SSE,157,0.0,8.0,45,0.00,,,0.00,meteohub,2013-04-26 16:52:00,
2013-04-26 12:57:00,61.3,42.3,30.36,South,170,1.0,8.0,45,0.00,,,0.00,meteohub,2013-04-26 16:57:00,
2013-04-26 13:02:00,61.5,42.4,30.36,SSE,148,2.0,8.0,44,0.00,,,0.00,meteohub,2013-04-26 17:02:00,
2013-04-26 13:07:00,61.0,42.4,30.36,South,175,1.0,7.0,43,0.00,,,0.00,meteohub,2013-04-26 17:07:00,
2013-04-26 13:12:00,61.5,42.4,30.36,ENE,59,2.0,7.0,44,0.00,,,0.00,meteohub,2013-04-26 17:12:00,
2013-04-26 13:17:00,61.3,42.4,30.36,SSE,153,3.0,8.0,44,0.00,,,0.00,meteohub,2013-04-26 17:17:00,
2013-04-26 13:22:00,60.6,42.6,30.36,WSW,249,0.0,8.0,46,0.00,,,0.00,meteohub,2013-04-26 17:22:00,
2013-04-26 13:27:00,61.0,42.6,30.35,SSE,147,7.0,7.0,44,0.00,,,0.00,meteohub,2013-04-26 17:27:00,
2013-04-26 13:32:00,60.4,42.6,30.35,NW,309,0.0,8.0,44,0.00,,,0.00,meteohub,2013-04-26 17:32:00,
2013-04-26 13:37:00,60.4,42.6,30.36,SSE,164,0.0,8.0,45,0.00,,,0.00,meteohub,2013-04-26 17:37:00,
2013-04-26 13:42:00,60.1,42.6,30.35,East,80,0.0,8.0,45,0.00,,,0.00,meteohub,2013-04-26 17:42:00,
2013-04-26 13:47:00,59.9,42.6,30.35,SSE,155,2.0,4.0,47,0.00,,,0.00,meteohub,2013-04-26 17:47:00,
2013-04-26 13:52:00,59.7,42.6,30.35,East,98,0.0,6.0,46,0.00,,,0.00,meteohub,2013-04-26 17:52:00,
2013-04-26 13:57:00,60.3,42.6,30.35,SSE,165,0.0,6.0,48,0.00,,,0.00,meteohub,2013-04-26 17:57:00,
2013-04-26 14:02:00,60.1,42.8,30.35,SSE,147,0.0,8.0,47,0.00,,,0.00,meteohub,2013-04-26 18:02:00,
2013-04-26 14:07:00,60.1,42.8,30.35,South,179,1.0,8.0,45,0.00,,,0.00,meteohub,2013-04-26 18:07:00,
2013-04-26 14:12:00,59.7,42.8,30.35,SSE,152,0.0,9.0,47,0.00,,,0.00,meteohub,2013-04-26 18:12:00,
2013-04-26 14:17:00,59.5,42.8,30.35,South,170,4.0,9.0,46,0.00,,,0.00,meteohub,2013-04-26 18:17:00,
2013-04-26 14:22:00,59.5,42.8,30.35,SSE,157,0.0,9.0,46,0.00,,,0.00,meteohub,2013-04-26 18:22:00,
2013-04-26 14:27:00,59.9,42.8,30.35,ESE,105,1.0,8.0,46,0.00,,,0.00,meteohub,2013-04-26 18:27:00,
2013-04-26 14:32:00,60.1,43.0,30.35,SSE,164,5.0,8.0,46,0.00,,,0.00,meteohub,2013-04-26 18:32:00,
2013-04-26 14:37:00,59.9,43.0,30.35,South,173,2.0,8.0,48,0.00,,,0.00,meteohub,2013-04-26 18:37:00,
2013-04-26 14:42:00,59.5,43.0,30.35,SE,141,1.0,10.0,47,0.00,,,0.00,meteohub,2013-04-26 18:42:00,
2013-04-26 14:47:00,60.1,43.0,30.35,South,169,4.0,10.0,49,0.00,,,0.00,meteohub,2013-04-26 18:47:00,
2013-04-26 14:52:00,60.8,43.2,30.35,West,261,0.0,10.0,46,0.00,,,0.00,meteohub,2013-04-26 18:52:00,
2013-04-26 14:57:00,61.0,43.2,30.35,ENE,74,2.0,7.0,46,0.00,,,0.00,meteohub,2013-04-26 18:57:00,
2013-04-26 15:02:00,61.0,43.2,30.35,SE,140,5.0,7.0,46,0.00,,,0.00,meteohub,2013-04-26 19:02:00,
2013-04-26 15:07:00,61.0,43.2,30.35,East,93,0.0,6.0,46,0.00,,,0.00,meteohub,2013-04-26 19:07:00,
2013-04-26 15:12:00,61.3,43.3,30.35,South,178,1.0,7.0,46,0.00,,,0.00,meteohub,2013-04-26 19:12:00,
2013-04-26 15:17:00,61.3,43.3,30.35,SE,130,4.0,7.0,45,0.00,,,0.00,meteohub,2013-04-26 19:17:00,
2013-04-26 15:22:00,60.6,43.3,30.35,South,175,1.0,8.0,44,0.00,,,0.00,meteohub,2013-04-26 19:22:00,
2013-04-26 15:27:00,59.9,43.3,30.35,South,179,2.0,9.0,47,0.00,,,0.00,meteohub,2013-04-26 19:27:00,
2013-04-26 15:32:00,59.5,43.3,30.35,SE,140,6.0,9.0,46,0.00,,,0.00,meteohub,2013-04-26 19:32:00,
2013-04-26 15:37:00,59.4,43.3,30.35,SSE,153,0.0,9.0,46,0.00,,,0.00,meteohub,2013-04-26 19:37:00,
2013-04-26 15:42:00,59.7,43.3,30.35,SSE,162,0.0,8.0,47,0.00,,,0.00,meteohub,2013-04-26 19:42:00,
2013-04-26 15:47:00,60.3,43.3,30.35,South,175,0.0,8.0,47,0.00,,,0.00,meteohub,2013-04-26 19:47:00,
2013-04-26 15:52:00,60.4,43.3,30.35,SSE,150,1.0,7.0,46,0.00,,,0.00,meteohub,2013-04-26 19:52:00,
2013-04-26 15:57:00,59.7,43.3,30.35,SSE,161,4.0,12.0,46,0.00,,,0.00,meteohub,2013-04-26 19:57:00,
2013-04-26 16:02:00,59.4,43.3,30.35,SSE,168,0.0,12.0,47,0.00,,,0.00,meteohub,2013-04-26 20:02:00,
2013-04-26 16:07:00,59.0,43.3,30.35,SSE,151,3.0,12.0,48,0.00,,,0.00,meteohub,2013-04-26 20:07:00,
2013-04-26 16:12:00,59.0,43.3,30.35,ESE,119,0.0,7.0,48,0.00,,,0.00,meteohub,2013-04-26 20:12:00,
2013-04-26 16:17:00,59.0,43.3,30.35,SSW,205,1.0,8.0,48,0.00,,,0.00,meteohub,2013-04-26 20:17:00,
2013-04-26 16:22:00,59.0,43.3,30.35,SSE,165,2.0,8.0,48,0.00,,,0.00,meteohub,2013-04-26 20:22:00,
2013-04-26 16:27:00,58.3,43.3,30.35,SSE,156,4.0,7.0,49,0.00,,,0.00,meteohub,2013-04-26 20:27:00,
2013-04-26 16:32:00,57.9,43.3,30.35,ESE,114,0.0,10.0,49,0.00,,,0.00,meteohub,2013-04-26 20:32:00,
2013-04-26 16:37:00,57.7,43.3,30.35,SE,142,2.0,10.0,49,0.00,,,0.00,meteohub,2013-04-26 20:37:00,
2013-04-26 16:42:00,57.7,43.3,30.35,SSE,159,4.0,10.0,50,0.00,,,0.00,meteohub,2013-04-26 20:42:00,
2013-04-26 16:47:00,57.6,43.3,30.35,SE,142,2.0,10.0,49,0.00,,,0.00,meteohub,2013-04-26 20:47:00,
2013-04-26 16:52:00,57.6,43.3,30.35,SSE,162,2.0,10.0,49,0.00,,,0.00,meteohub,2013-04-26 20:52:00,
2013-04-26 16:57:00,57.4,43.3,30.35,SE,136,2.0,10.0,50,0.00,,,0.00,meteohub,2013-04-26 20:57:00,
2013-04-26 17:02:00,57.4,43.3,30.35,SSE,161,2.0,10.0,49,0.00,,,0.00,meteohub,2013-04-26 21:02:00,
2013-04-26 17:07:00,56.8,43.3,30.36,SE,132,0.0,9.0,50,0.00,,,0.00,meteohub,2013-04-26 21:07:00,
2013-04-26 17:12:00,56.5,43.3,30.36,SSE,150,0.0,9.0,51,0.00,,,0.00,meteohub,2013-04-26 21:12:00,
2013-04-26 17:17:00,56.5,43.3,30.36,SE,136,1.0,9.0,51,0.00,,,0.00,meteohub,2013-04-26 21:17:00,
2013-04-26 17:22:00,56.3,43.3,30.36,SE,132,6.0,9.0,49,0.00,,,0.00,meteohub,2013-04-26 21:22:00,
2013-04-26 17:27:00,56.5,43.3,30.36,SE,137,3.0,8.0,50,0.00,,,0.00,meteohub,2013-04-26 21:27:00,
2013-04-26 17:32:00,56.7,43.3,30.36,NNE,18,4.0,8.0,50,0.00,,,0.00,meteohub,2013-04-26 21:32:00,
2013-04-26 17:37:00,56.7,43.3,30.36,South,178,0.0,8.0,50,0.00,,,0.00,meteohub,2013-04-26 21:37:00,
2013-04-26 17:42:00,56.5,43.3,30.37,South,182,3.0,7.0,50,0.00,,,0.00,meteohub,2013-04-26 21:42:00,
2013-04-26 17:47:00,56.1,43.3,30.36,SSE,149,7.0,7.0,50,0.00,,,0.00,meteohub,2013-04-26 21:47:00,
2013-04-26 17:52:00,55.6,43.3,30.37,SSE,156,0.0,8.0,51,0.00,,,0.00,meteohub,2013-04-26 21:52:00,
2013-04-26 17:57:00,55.2,43.3,30.37,SE,139,3.0,8.0,51,0.00,,,0.00,meteohub,2013-04-26 21:57:00,
2013-04-26 18:02:00,55.0,43.3,30.37,SE,138,0.0,9.0,52,0.00,,,0.00,meteohub,2013-04-26 22:02:00,
2013-04-26 18:07:00,55.0,43.3,30.37,SE,146,2.0,9.0,52,0.00,,,0.00,meteohub,2013-04-26 22:07:00,
2013-04-26 18:12:00,54.9,43.3,30.37,SE,144,0.0,9.0,53,0.00,,,0.00,meteohub,2013-04-26 22:12:00,
2013-04-26 18:17:00,54.9,43.3,30.37,SSE,155,0.0,7.0,52,0.00,,,0.00,meteohub,2013-04-26 22:17:00,
2013-04-26 18:22:00,54.5,43.3,30.37,SSE,166,0.0,7.0,53,0.00,,,0.00,meteohub,2013-04-26 22:22:00,
2013-04-26 18:27:00,54.1,43.3,30.37,SE,132,0.0,8.0,53,0.00,,,0.00,meteohub,2013-04-26 22:27:00,
2013-04-26 18:32:00,54.0,43.5,30.38,SSE,160,2.0,8.0,54,0.00,,,0.00,meteohub,2013-04-26 22:32:00,
2013-04-26 18:37:00,53.8,43.5,30.38,SE,135,0.0,8.0,54,0.00,,,0.00,meteohub,2013-04-26 22:37:00,
2013-04-26 18:42:00,53.8,43.5,30.38,South,176,0.0,7.0,54,0.00,,,0.00,meteohub,2013-04-26 22:42:00,
2013-04-26 18:47:00,53.6,43.3,30.38,ENE,71,1.0,7.0,55,0.00,,,0.00,meteohub,2013-04-26 22:47:00,
2013-04-26 18:52:00,53.4,43.3,30.38,East,98,0.0,6.0,55,0.00,,,0.00,meteohub,2013-04-26 22:52:00,
2013-04-26 18:57:00,53.4,43.3,30.38,East,98,0.0,2.0,55,0.00,,,0.00,meteohub,2013-04-26 22:57:00,
2013-04-26 19:02:00,53.2,43.3,30.39,SE,127,0.0,3.0,55,0.00,,,0.00,meteohub,2013-04-26 23:02:00,
2013-04-26 19:07:00,53.2,43.3,30.39,SE,127,0.0,3.0,56,0.00,,,0.00,meteohub,2013-04-26 23:07:00,
2013-04-26 19:12:00,53.2,43.3,30.39,SE,127,1.0,3.0,56,0.00,,,0.00,meteohub,2013-04-26 23:12:00,
2013-04-26 19:17:00,53.1,43.3,30.39,SE,130,5.0,5.0,55,0.00,,,0.00,meteohub,2013-04-26 23:17:00,
2013-04-26 19:22:00,52.9,43.3,30.39,South,171,0.0,5.0,55,0.00,,,0.00,meteohub,2013-04-26 23:22:00,
2013-04-26 19:27:00,52.7,43.3,30.40,SSE,164,0.0,5.0,55,0.00,,,0.00,meteohub,2013-04-26 23:27:00,
2013-04-26 19:32:00,52.5,43.3,30.40,SE,130,5.0,5.0,55,0.00,,,0.00,meteohub,2013-04-26 23:32:00,
2013-04-26 19:37:00,52.3,43.3,30.40,SSE,161,1.0,6.0,55,0.00,,,0.00,meteohub,2013-04-26 23:37:00,
2013-04-26 19:42:00,52.2,43.3,30.40,SSE,159,1.0,6.0,55,0.00,,,0.00,meteohub,2013-04-26 23:42:00,
2013-04-26 19:47:00,52.0,43.2,30.40,SSE,166,6.0,6.0,55,0.00,,,0.00,meteohub,2013-04-26 23:47:00,
2013-04-26 19:52:00,51.8,43.2,30.40,SSW,211,0.0,8.0,55,0.00,,,0.00,meteohub,2013-04-26 23:52:00,
2013-04-26 20:05:00,51.4,43.2,30.41,SE,128,0.0,8.0,56,0.00,,,0.00,meteohub,2013-04-27 00:05:00,
2013-04-26 20:10:00,51.4,43.2,30.41,SE,128,0.0,2.0,58,0.00,,,0.00,meteohub,2013-04-27 00:10:00,
2013-04-26 20:15:00,51.4,43.0,30.42,SE,128,0.0,1.0,58,0.00,,,0.00,meteohub,2013-04-27 00:15:00,
2013-04-26 20:20:00,51.3,43.0,30.42,SE,128,0.0,1.0,60,0.00,,,0.00,meteohub,2013-04-27 00:20:00,
2013-04-26 20:25:00,51.3,43.0,30.42,SE,128,0.0,1.0,59,0.00,,,0.00,meteohub,2013-04-27 00:25:00,
2013-04-26 20:31:00,51.1,43.0,30.42,SE,128,3.0,3.0,60,0.00,,,0.00,meteohub,2013-04-27 00:31:00,
2013-04-26 20:35:00,50.9,43.0,30.42,SSE,163,0.0,5.0,60,0.00,,,0.00,meteohub,2013-04-27 00:35:00,
2013-04-26 20:41:00,50.7,42.8,30.42,SSE,163,0.0,5.0,61,0.00,,,0.00,meteohub,2013-04-27 00:41:00,
2013-04-26 20:46:00,50.7,42.8,30.42,East,85,0.0,5.0,60,0.00,,,0.00,meteohub,2013-04-27 00:46:00,
2013-04-26 20:51:00,50.5,42.8,30.43,NE,40,0.0,2.0,61,0.00,,,0.00,meteohub,2013-04-27 00:51:00,
2013-04-26 20:56:00,50.5,42.8,30.43,ENE,78,0.0,2.0,60,0.00,,,0.00,meteohub,2013-04-27 00:56:00,
2013-04-26 21:01:00,50.4,42.8,30.43,ENE,78,0.0,1.0,61,0.00,,,0.00,meteohub,2013-04-27 01:01:00,
2013-04-26 21:06:00,50.4,42.6,30.43,ENE,78,0.0,2.0,62,0.00,,,0.00,meteohub,2013-04-27 01:06:00,
2013-04-26 21:11:00,50.2,42.6,30.43,ENE,78,0.0,2.0,62,0.00,,,0.00,meteohub,2013-04-27 01:11:00,
2013-04-26 21:16:00,50.0,42.6,30.43,ENE,78,0.0,2.0,63,0.00,,,0.00,meteohub,2013-04-27 01:16:00,
2013-04-26 21:21:00,49.8,42.6,30.43,ENE,78,0.0,1.0,63,0.00,,,0.00,meteohub,2013-04-27 01:21:00,
2013-04-26 21:26:00,49.6,42.6,30.42,ENE,78,0.0,1.0,64,0.00,,,0.00,meteohub,2013-04-27 01:26:00,
2013-04-26 21:31:00,49.5,42.4,30.43,ENE,78,0.0,0.0,64,0.00,,,0.00,meteohub,2013-04-27 01:31:00,
2013-04-26 21:36:00,49.3,42.4,30.43,ENE,78,0.0,0.0,65,0.00,,,0.00,meteohub,2013-04-27 01:36:00,
2013-04-26 21:41:00,48.9,42.4,30.43,ENE,78,0.0,0.0,66,0.00,,,0.00,meteohub,2013-04-27 01:41:00,
2013-04-26 21:46:00,48.7,42.4,30.43,ENE,78,0.0,0.0,66,0.00,,,0.00,meteohub,2013-04-27 01:46:00,
2013-04-26 21:51:00,48.4,42.4,30.43,ENE,78,0.0,0.0,68,0.00,,,0.00,meteohub,2013-04-27 01:51:00,
2013-04-26 21:56:00,47.8,42.3,30.43,ENE,78,0.0,0.0,68,0.00,,,0.00,meteohub,2013-04-27 01:56:00,
2013-04-26 22:01:00,47.7,42.3,30.43,ENE,78,0.0,0.0,69,0.00,,,0.00,meteohub,2013-04-27 02:01:00,
2013-04-26 22:06:00,47.5,42.3,30.43,ENE,78,0.0,0.0,69,0.00,,,0.00,meteohub,2013-04-27 02:06:00,
2013-04-26 22:11:00,47.3,42.3,30.43,ENE,78,0.0,0.0,70,0.00,,,0.00,meteohub,2013-04-27 02:11:00,
2013-04-26 22:16:00,47.1,42.3,30.43,ENE,78,0.0,0.0,70,0.00,,,0.00,meteohub,2013-04-27 02:16:00,
2013-04-26 22:21:00,46.9,42.3,30.43,ENE,78,0.0,0.0,70,0.00,,,0.00,meteohub,2013-04-27 02:21:00,
2013-04-26 22:26:00,46.9,42.3,30.43,ENE,78,0.0,1.0,70,0.00,,,0.00,meteohub,2013-04-27 02:26:00,
2013-04-26 22:31:00,46.8,42.3,30.43,ENE,78,0.0,1.0,71,0.00,,,0.00,meteohub,2013-04-27 02:31:00,
2013-04-26 22:36:00,46.8,42.3,30.43,ENE,78,0.0,1.0,71,0.00,,,0.00,meteohub,2013-04-27 02:36:00,
2013-04-26 22:41:00,46.6,42.3,30.43,ENE,78,0.0,0.0,71,0.00,,,0.00,meteohub,2013-04-27 02:41:00,
2013-04-26 22:46:00,46.6,42.1,30.43,ENE,78,0.0,0.0,71,0.00,,,0.00,meteohub,2013-04-27 02:46:00,
2013-04-26 22:51:00,46.2,42.1,30.43,ENE,78,0.0,0.0,73,0.00,,,0.00,meteohub,2013-04-27 02:51:00,
2013-04-26 22:56:00,46.0,42.1,30.43,ENE,78,0.0,0.0,74,0.00,,,0.00,meteohub,2013-04-27 02:56:00,
2013-04-26 23:01:00,45.9,42.1,30.43,ENE,78,0.0,0.0,74,0.00,,,0.00,meteohub,2013-04-27 03:01:00,
2013-04-26 23:06:00,45.7,42.1,30.43,ENE,78,0.0,0.0,74,0.00,,,0.00,meteohub,2013-04-27 03:06:00,
2013-04-26 23:11:00,45.3,41.9,30.42,ENE,78,0.0,0.0,74,0.00,,,0.00,meteohub,2013-04-27 03:11:00,
2013-04-26 23:16:00,45.1,41.9,30.43,ENE,78,0.0,0.0,75,0.00,,,0.00,meteohub,2013-04-27 03:16:00,
2013-04-26 23:21:00,45.0,41.9,30.42,ENE,78,0.0,0.0,75,0.00,,,0.00,meteohub,2013-04-27 03:21:00,
2013-04-26 23:26:00,44.8,41.9,30.43,ENE,78,0.0,0.0,75,0.00,,,0.00,meteohub,2013-04-27 03:26:00,
2013-04-26 23:31:00,44.4,41.7,30.43,ENE,78,0.0,0.0,76,0.00,,,0.00,meteohub,2013-04-27 03:31:00,
2013-04-26 23:36:00,44.1,41.7,30.43,ENE,78,0.0,0.0,77,0.00,,,0.00,meteohub,2013-04-27 03:36:00,
2013-04-26 23:41:00,43.5,41.7,30.43,ENE,78,0.0,0.0,77,0.00,,,0.00,meteohub,2013-04-27 03:41:00,
2013-04-26 23:46:00,43.2,41.5,30.43,ENE,78,0.0,0.0,78,0.00,,,0.00,meteohub,2013-04-27 03:46:00,
2013-04-26 23:51:00,42.8,41.5,30.43,ENE,78,0.0,0.0,79,0.00,,,0.00,meteohub,2013-04-27 03:51:00,
2013-04-26 23:56:00,42.4,41.5,30.43,ENE,78,0.0,0.0,80,0.00,,,0.00,meteohub,2013-04-27 03:56:00,